TimeCDT,TemperatureF,Dew PointF,Humidity,Sea Level PressureIn,VisibilityMPH,Wind Direction,Wind SpeedMPH,Gust SpeedMPH,PrecipitationIn,Events,Conditions,WindDirDegrees,DateUTC
12:15 AM,30.9,25.7,81,29.93,10.0,East,9.2,-,N/A,,Overcast,90,2013-03-22 05:15:00
12:35 AM,31.1,25.0,78,29.94,10.0,East,6.9,-,N/A,,Overcast,90,2013-03-22 05:35:00
12:55 AM,31.3,24.6,76,29.95,10.0,East,5.8,-,N/A,,Overcast,100,2013-03-22 05:55:00
1:15 AM,31.6,24.4,75,29.95,10.0,East,5.8,-,N/A,,Overcast,90,2013-03-22 06:15:00
1:35 AM,31.5,24.3,75,29.95,10.0,East,5.8,-,N/A,,Overcast,100,2013-03-22 06:35:00
1:55 AM,31.1,25.0,78,29.95,3.0,East,6.9,-,N/A,Snow,Light Snow,90,2013-03-22 06:55:00
2:15 AM,30.2,25.3,82,29.96,3.0,East,8.1,-,N/A,Snow,Light Snow,90,2013-03-22 07:15:00
2:35 AM,30.2,25.7,83,29.96,3.0,East,6.9,-,N/A,Snow,Light Snow,90,2013-03-22 07:35:00
2:55 AM,29.8,26.1,86,29.95,2.5,East,6.9,-,N/A,Snow,Light Snow,100,2013-03-22 07:55:00
3:15 AM,29.7,26.1,86,29.94,3.0,East,10.4,-,N/A,Snow,Light Snow,100,2013-03-22 08:15:00
3:35 AM,29.3,26.1,88,29.94,3.0,East,6.9,-,N/A,Snow,Light Snow,80,2013-03-22 08:35:00
3:55 AM,29.3,25.7,86,29.94,4.0,East,9.2,-,N/A,Snow,Light Snow,90,2013-03-22 08:55:00
4:15 AM,29.1,25.3,86,29.94,3.0,East,8.1,-,N/A,Snow,Light Snow,90,2013-03-22 09:15:00
4:35 AM,28.9,25.7,88,29.94,1.8,East,4.6,-,N/A,Snow,Light Snow,100,2013-03-22 09:35:00
4:55 AM,28.9,25.7,88,29.95,1.8,Calm,Calm,-,N/A,Snow,Light Snow,0,2013-03-22 09:55:00
5:15 AM,28.8,25.7,88,29.94,4.0,East,4.6,-,N/A,Snow,Light Snow,90,2013-03-22 10:15:00
5:35 AM,28.6,25.3,88,29.93,7.0,East,5.8,-,N/A,Snow,Light Snow,90,2013-03-22 10:35:00
5:55 AM,28.4,25.0,87,29.93,7.0,East,8.1,-,N/A,,Overcast,90,2013-03-22 10:55:00
6:15 AM,28.4,25.3,88,29.93,7.0,East,6.9,-,N/A,,Overcast,100,2013-03-22 11:15:00
6:35 AM,28.4,24.8,86,29.93,10.0,East,6.9,-,N/A,,Overcast,90,2013-03-22 11:35:00
6:55 AM,28.4,24.8,86,29.93,10.0,East,4.6,-,N/A,,Overcast,100,2013-03-22 11:55:00
7:15 AM,28.4,24.8,86,29.94,10.0,East,4.6,-,N/A,,Overcast,100,2013-03-22 12:15:00
7:35 AM,28.4,24.8,86,29.95,10.0,East,5.8,-,N/A,,Overcast,90,2013-03-22 12:35:00
7:55 AM,28.4,24.8,86,29.95,7.0,East,8.1,-,N/A,,Overcast,90,2013-03-22 12:55:00
8:15 AM,28.4,24.6,86,29.94,7.0,East,6.9,-,N/A,,Overcast,100,2013-03-22 13:15:00
8:35 AM,28.4,24.8,86,29.94,7.0,ESE,6.9,-,N/A,,Overcast,110,2013-03-22 13:35:00
8:55 AM,28.6,24.8,86,29.94,7.0,ESE,5.8,-,N/A,,Overcast,110,2013-03-22 13:55:00
9:15 AM,28.9,24.8,84,29.95,7.0,ESE,9.2,-,N/A,,Overcast,110,2013-03-22 14:15:00
9:35 AM,29.1,25.0,85,29.96,7.0,ESE,4.6,-,N/A,,Overcast,120,2013-03-22 14:35:00
9:55 AM,29.3,25.3,85,29.96,7.0,ESE,4.6,-,N/A,,Overcast,110,2013-03-22 14:55:00
10:15 AM,29.7,25.5,85,29.96,7.0,ESE,6.9,-,N/A,,Overcast,120,2013-03-22 15:15:00
10:35 AM,29.7,25.5,85,29.97,10.0,SE,6.9,-,N/A,,Overcast,140,2013-03-22 15:35:00
10:55 AM,30.2,25.7,83,29.97,10.0,SE,8.1,-,N/A,,Overcast,130,2013-03-22 15:55:00
11:15 AM,30.4,26.2,85,29.97,7.0,SE,8.1,-,N/A,,Overcast,130,2013-03-22 16:15:00
11:35 AM,30.6,26.1,83,29.97,7.0,SSE,6.9,-,N/A,,Overcast,160,2013-03-22 16:35:00
11:55 AM,30.7,26.2,83,29.97,7.0,SE,5.8,-,N/A,,Overcast,140,2013-03-22 16:55:00
12:15 PM,30.9,26.4,83,29.97,7.0,SSE,4.6,-,N/A,,Overcast,150,2013-03-22 17:15:00
12:35 PM,31.3,27.0,84,29.97,7.0,SSE,4.6,-,N/A,,Overcast,150,2013-03-22 17:35:00
12:55 PM,31.6,26.8,82,29.96,7.0,SE,4.6,-,N/A,,Overcast,130,2013-03-22 17:55:00
1:15 PM,32.0,27.5,83,29.96,7.0,SE,3.5,-,N/A,,Overcast,140,2013-03-22 18:15:00
1:35 PM,32.2,27.5,83,29.95,7.0,Calm,Calm,-,N/A,,Overcast,0,2013-03-22 18:35:00
1:55 PM,32.2,27.3,82,29.94,7.0,Calm,Calm,-,N/A,,Overcast,0,2013-03-22 18:55:00
2:15 PM,33.3,28.2,82,29.94,10.0,Calm,Calm,-,N/A,,Overcast,0,2013-03-22 19:15:00
2:35 PM,34.0,28.6,81,29.94,7.0,East,3.5,-,N/A,,Overcast,90,2013-03-22 19:35:00
2:55 PM,34.7,28.9,79,29.93,10.0,Calm,Calm,-,N/A,,Overcast,0,2013-03-22 19:55:00
3:15 PM,35.6,29.3,78,29.93,10.0,East,4.6,-,N/A,,Overcast,80,2013-03-22 20:15:00
3:35 PM,36.7,30.0,77,29.92,10.0,East,5.8,-,N/A,,Overcast,100,2013-03-22 20:35:00
3:55 PM,37.2,29.5,74,29.92,10.0,Calm,Calm,-,N/A,,Overcast,0,2013-03-22 20:55:00
4:15 PM,38.1,29.8,72,29.92,10.0,East,5.8,-,N/A,,Overcast,80,2013-03-22 21:15:00
4:35 PM,38.3,29.5,71,29.92,10.0,East,5.8,-,N/A,,Overcast,80,2013-03-22 21:35:00
4:55 PM,38.3,29.7,71,29.92,10.0,East,5.8,-,N/A,,Overcast,80,2013-03-22 21:55:00
5:15 PM,38.7,29.5,70,29.92,10.0,East,5.8,-,N/A,,Overcast,100,2013-03-22 22:15:00
5:35 PM,37.9,29.5,72,29.93,10.0,ESE,6.9,-,N/A,,Overcast,110,2013-03-22 22:35:00
5:55 PM,37.6,29.3,72,29.93,10.0,East,5.8,-,N/A,,Overcast,90,2013-03-22 22:55:00
6:15 PM,37.4,29.3,73,29.93,10.0,East,5.8,-,N/A,,Overcast,90,2013-03-22 23:15:00
6:35 PM,37.0,29.5,74,29.92,10.0,East,8.1,-,N/A,,Overcast,90,2013-03-22 23:35:00
6:55 PM,36.9,29.5,75,29.93,10.0,East,4.6,-,N/A,,Overcast,100,2013-03-22 23:55:00
7:15 PM,36.5,29.5,76,29.94,10.0,East,5.8,-,N/A,,Overcast,100,2013-03-23 00:15:00
7:35 PM,36.1,29.7,77,29.96,10.0,East,5.8,-,N/A,,Overcast,100,2013-03-23 00:35:00
7:55 PM,35.8,29.7,78,29.96,10.0,ESE,6.9,-,N/A,,Overcast,110,2013-03-23 00:55:00
8:15 PM,35.6,29.8,80,29.96,10.0,East,6.9,-,N/A,,Overcast,90,2013-03-23 01:15:00
8:35 PM,35.2,29.7,80,29.97,10.0,East,6.9,-,N/A,,Overcast,100,2013-03-23 01:35:00
8:55 PM,35.1,29.7,81,29.97,10.0,East,8.1,-,N/A,,Overcast,90,2013-03-23 01:55:00
9:15 PM,35.1,29.7,81,29.97,10.0,East,6.9,-,N/A,,Overcast,90,2013-03-23 02:15:00
9:35 PM,34.9,29.7,81,29.97,10.0,ENE,6.9,-,N/A,,Overcast,70,2013-03-23 02:35:00
9:55 PM,34.7,29.8,82,29.97,10.0,ENE,6.9,-,N/A,,Overcast,70,2013-03-23 02:55:00
10:15 PM,34.7,29.7,82,29.97,10.0,East,8.1,-,N/A,,Overcast,80,2013-03-23 03:15:00
10:35 PM,34.7,29.3,81,29.99,10.0,ENE,8.1,-,N/A,,Overcast,70,2013-03-23 03:35:00
10:55 PM,34.7,29.3,81,30.00,10.0,East,5.8,-,N/A,,Overcast,90,2013-03-23 03:55:00
11:15 PM,34.3,29.3,82,29.99,10.0,ENE,6.9,-,N/A,,Overcast,70,2013-03-23 04:15:00
11:35 PM,34.3,29.1,81,30.00,10.0,East,5.8,-,N/A,,Overcast,80,2013-03-23 04:35:00
11:55 PM,34.2,28.9,81,29.99,10.0,East,6.9,-,N/A,,Overcast,80,2013-03-23 04:55:00